Regional Weather Roundup
Issued by NWS

Home | Current Version | Previous Version | Text Only | Print | Product List | Glossary On
Versions: 1 2 3 4 5 6 7 8 9 10 11 12 13 14 15 16 17 18 19 20 21 22 23 24 25 26 27 28 29 30 31 32 33 34 35 36 37 38 39 40 41 42 43 44 45 46 47 48 49 50
000
ASUS43 KLSX 311910
RWRMO

WEATHER SUMMARY FOR MISSOURI
NATIONAL WEATHER SERVICE SPRINGFIELD MO
200 PM CDT TUE MAY 31 2016

NOTE: "FAIR" INDICATES FEW OR NO CLOUDS BELOW 12,000 FEET WITH NO
       SIGNIFICANT WEATHER AND/OR OBSTRUCTIONS TO VISIBILITY.
       CURRENT SKY AND/OR WEATHER CONDITIONS ARE NOT AVAILABLE FOR
       CHILLICOTHE AND FARMINGTON.

MOZ001>031-035>038-043-044-053-054-312000-
...NORTHERN AND WESTERN MISSOURI...

CITY           SKY/WX    TMP DP  RH WIND       PRES   REMARKS
KANSAS CTY INT CLOUDY    75  64  68 W3        29.92F
KANSAS C DTWN  CLOUDY    79  64  60 CALM      29.90F
LEE`S SUMMIT   MOSUNNY   78  65  63 CALM      29.92F
ST JOSEPH      CLOUDY    75  62  64 S10       29.91F
CHILLICOTHE      N/A     77  66  68 SW7       29.93F
KIRKSVILLE     CLOUDY    77  62  59 S12       29.94F

$$
MOZ066>068-077>081-088>096-101>105-312000-
...SOUTHWEST MISSOURI...

CITY           SKY/WX    TMP DP  RH WIND       PRES   REMARKS
SPRINGFIELD    MOSUNNY   78  64  61 E15       29.89F
JOPLIN         CLOUDY    79  67  66 VRB6      29.89S
BRANSON        PTSUNNY   77  64  65 SE6       29.96F

$$
MOZ032>034-039>042-045>050-055>058-069>072-312000-
...CENTRAL MISSOURI...

CITY           SKY/WX    TMP DP  RH WIND       PRES   REMARKS
COLUMBIA       PTSUNNY   79  63  57 S15       29.94F
JEFFERSON CITY CLOUDY    80  63  55 SE12      29.93F
ROLLA          CLOUDY    77  64  64 S8        29.94F
SEDALIA        CLOUDY    79  66  64 SW7G16    29.94F
WHITEMAN AFB   PTSUNNY   76  68  77 SW8       29.91F
WARRENSBURG    PTSUNNY   77  64  65 SE6       29.91F

$$
MOZ051-052-059>065-312000-
...EAST CENTRAL MISSOURI...

CITY           SKY/WX    TMP DP  RH WIND       PRES   REMARKS
ST LOUIS INTL  PTSUNNY   81  63  54 CALM      29.96F
SPIRIT OF STL  PTSUNNY   82  65  56 SE8       29.93F
ST CHARLES     MOSUNNY   79  64  60 E6        29.94F

$$
MOZ072>076-082>087-097>100-106>115-312000-
...SOUTH CENTRAL AND SOUTHEAST MISSOURI...

CITY           SKY/WX    TMP DP  RH WIND       PRES   REMARKS
CAPE GIRARDEAU SUNNY     82  63  52 VRB5      29.94F
FARMINGTON     MOSUNNY   78  66  66 S7        29.97F
POPLAR BLUFF   SUNNY     80  66  62 SW6       29.94F
WEST PLAINS    CLOUDY    75  65  70 CALM      29.98F

$$




USA.gov is the U.S. government's official web portal to all federal, state and local government web resources and services.